Regional Weather Roundup
Issued by NWS Sterling, VA

Home | Current Version | Previous Version | Graphics & Text | Print | Product List | Glossary On
Versions: 1 2 3 4 5 6 7 8 9 10 11 12 13 14 15 16 17 18 19 20 21 22 23 24 25 26
000
ASUS41 KLWX 280511
RWRLWX

REGIONAL WEATHER ROUNDUP
NATIONAL WEATHER SERVICE BALTIMORE MD/WASHINGTON DC
100 AM EDT FRI JUL 28 2017

Note: "FAIR" indicates few or no clouds below 12,000 feet
with no significant weather and/or obstructions to visibility.
 TC=TEMPERATURE CELSIUS

 * =Non NWS site. Station does not report precipitation (e.g. rain,
    snow, etc.), thunder, or fog.

DCZ001-MDZ009-015-VAZ040>042-051-053>054-280600-
WASHINGTON METRO

CITY           SKY/WX    TMP DP  RH WIND       PRES   REMARKS
WASHINGTON NAT MOCLDY    79  76  90 S5        29.84F
DULLES         PTCLDY    74  72  93 CALM      29.86S
ANDREWS AFB    CLEAR     74  73  95 CALM      29.84S
FT BELVOIR     CLOUDY    76  73  92 CALM      29.84S
QUANTICO       PTCLDY    78  73  84 W3        29.85S
COLLEGE PARK*  CLOUDY    74  69  85 CALM      29.84F
LEESBURG*      CLEAR     75  73  94 CALM      29.87F
MANASSAS*      CLEAR     74  72  93 CALM      29.85F
GAITHERSBURG*  MOCLDY    73  71  93 CALM      29.87F

$$

MDZ006>007-011-014-280600-
BALTIMORE METRO

CITY           SKY/WX    TMP DP  RH WIND       PRES   REMARKS
BWI AIRPORT    MOCLDY    77  71  82 CALM      29.84F
MD SCIENCE CTR   N/A     81  74  79 MISG      29.84F
MARTIN STATE   MOCLDY    77  77 100 CALM      29.86F
ANNAPOLIS      CLOUDY    80  77  90 SE3       29.83F
FORT MEADE*    CLOUDY    70  68  94 CALM      29.87F

$$

MDZ012-015-019>023-280600-
MARYLAND EASTERN SHORE

CITY           SKY/WX    TMP DP  RH WIND       PRES   REMARKS
OCEAN CITY     CLOUDY    78  74  87 SW7       29.84F
SALISBURY      CLOUDY    74  73  97 S3        29.84F
BAY BRIDGE AP* CLOUDY    77  72  83 E3        29.84F
CAMBRIDGE*     CLEAR     73  72  94 CALM      29.84F
EASTON*        MOCLDY    76  73  93 CALM      29.88S

$$

MDZ017>025-280600-
SOUTHERN MARYLAND

CITY           SKY/WX    TMP DP  RH WIND       PRES   REMARKS
PATUXENT RIVER CLOUDY    77  76  96 W6        29.83F
ST INIGOES     CLOUDY    80  74  81 W6        29.83F
LEONARDTOWN*   MOCLDY    77  70  78 SW5       29.86S

$$

MDZ003>005-280600-
NORTH CENTRAL MARYLAND

CITY           SKY/WX    TMP DP  RH WIND       PRES   REMARKS
FREDERICK*     PTCLDY    72  72 100 CALM      29.88S FOG
HAGERSTOWN APT CLOUDY    77  68  73 CALM      29.87S
WESTMINSTER*   CLOUDY    75  72  88 CALM      29.88R

$$

MDZ501>502-280600-
WESTERN MARYLAND

CITY           SKY/WX    TMP DP  RH WIND       PRES   REMARKS
OAKLAND*       CLOUDY    63  63 100 W3        29.96F
CUMBERLAND*    CLEAR     70  70 100 CALM      29.93F

$$

VAZ025>031-280600-
SHENANDOAH VALLEY

CITY           SKY/WX    TMP DP  RH WIND       PRES   REMARKS
WINCHESTER*    CLEAR     68  66  94 CALM      29.88S
FRONT ROYAL*   CLEAR     70  70 100 CALM      29.87F
LURAY*         CLEAR     70  70 100 CALM      29.89S FOG
NEW MARKET*    MOCLDY    68  66  96 CALM      29.89S
STAUNTON*      CLOUDY    71  69  92 CALM      29.93S
WAYNESBORO*    CLOUDY    72  69  90 W3        29.92S

$$

WVZ021-048>050-054>055-280600-
EASTERN WEST VIRGINIA PANHANDLE

CITY           SKY/WX    TMP DP  RH WIND       PRES   REMARKS
MARTINSBURG    PTCLDY    70  68  93 CALM      29.86S FOG
PETERSBURG*    CLOUDY    70  70  98 CALM      29.90F

$$

VAZ036>039-050-280600-
CENTRAL FOOTHILLS

CITY           SKY/WX    TMP DP  RH WIND       PRES   REMARKS
CHARLOTTESVILL CLOUDY    75  72  90 CALM      29.87S
CULPEPER*      PTCLDY    71  71  99 CALM      29.86F FOG
ORANGE*        CLEAR     70  70 100 CALM      29.86F
GORDONSVILLE*  CLOUDY    70  70 100 CALM      29.86S FOG
WARRENTON*     CLEAR     70  66  87 CALM      29.85S FOG

$$

VAZ055>057-280600-
NORTH AND CENTRAL PIEDMONT

CITY           SKY/WX    TMP DP  RH WIND       PRES   REMARKS
FREDERICKSBRG* CLEAR     74  71  91 SW3       29.84F
STAFFORD*      PTCLDY    72  72 100 CALM      29.89S

$$

NCZ024-NYZ072-PAZ021-071-VAZ022-071-280600-
OTHER REGIONAL OBSERVATIONS

CITY           SKY/WX    TMP DP  RH WIND       PRES   REMARKS
NEW YORK CITY  PTCLDY    74  69  85 VRB3      29.90S
PHILADELPHIA   PTCLDY    73  69  87 CALM      29.86F
PITTSBURGH     CLOUDY    71  70  96 SW3       29.90S
ROANOKE        CLOUDY    73  70  90 CALM      29.94F
RICHMOND       CLOUDY    76  68  76 SW8       29.86F
RALEIGH        CLOUDY    76  74  93 S5        29.91F

$$

ANZ530>537-280600-
MARINE OBSERVATIONS

STATION/POSITION TIME  TEMP    WIND        PRES
                       AIR SEA DIR/SP/G
                 (UTC) (F)     (DEG/KT/KT) (MB)
THOMAS PT LIGHT  0500   80 81  180/  9/ 10   N/A
BALT KEY BRIDGE  0448   79     170/  5/  6 1010.3F
COVE POINT       0448   80     260/  6/  9 1010.9F
LEWISETTA        0448   81 83  270/  8/ 10 1010.2F
SOLOMONS ISLAND  0448   80 83  250/  8/  9   N/A
PINEY POINT      0448          310/  8/  9   N/A

$$





USA.gov is the U.S. government's official web portal to all federal, state and local government web resources and services.